Weather History for KPAH - March, 2014

Change the Weather History Date:

Sunday, March 9, 2014

  Actual Average Record
Temperature  
Mean Temperature 41 °F 46 °F  
Max Temperature 51 °F 57 °F 78 °F (1974)
Min Temperature 31 °F 36 °F 10 °F (1943)
Degree Days  
Heating Degree Days 24 19  
Month to date heating degree days 271 182  
Since 1 July heating degree days 3926 3478  
Cooling Degree Days 0 0  
Month to date cooling degree days 0 0  
Year to date cooling degree days 0 0  
Moisture  
Dew Point 31 °F    
Average Humidity 69    
Maximum Humidity 85    
Minimum Humidity 52    
Precipitation  
Precipitation 0.00 in 0.12 in 5.22 in (1964)
Month to date precipitation 1.57 1.06  
Year to date precipitation 6.75 8.65  
Snow  
Snow 0.00 in 0.00 in 5.00 in (1975)
Month to date snowfall 5.4 0.3  
Since 1 July snowfall 18.3 8.8  
Snow Depth 0.00 in    
Sea Level Pressure  
Sea Level Pressure 30.24 in    
Wind  
Wind Speed 6 mph (NNW)    
Max Wind Speed 15 mph    
Max Gust Speed 19 mph    
Visibility 8 miles    
Events      
T = Trace of Precipitation, MM = Missing Value Source: NWS Daily Summary

Daily Weather History Graph

Daily Weather History Graph

Search for Another Location

Airport or City:

Trip Planner

Search our weather history database for the weather conditions in past years. The results will help you decide how hot, cold, wet, or windy it might be!

Date:

Astronomy

Mar. 09, 2014 Rise Set
Actual Time 7:14 AM CDT 6:56 PM CDT
Civil Twilight 6:48 AM CDT 7:22 PM CDT
Nautical Twilight 6:18 AM CDT 7:52 PM CDT
Astronomical Twilight 5:48 AM CDT 8:23 PM CDT
Moon 12:55 PM CDT (3/9) 3:34 AM CDT (3/9)
Length of Visible Light 12h 33m
Length of Day
11h 42m
First Quarter, 61% of the Moon is Illuminated
Mar 9
First Quarter
Mar 16
Full
Mar 23
Last Quarter
Mar 30
New
Apr 7
First Quarter

Hourly Weather History & Observations

Time (CDT) Temp. Windchill Dew Point Humidity Pressure Visibility Wind Dir Wind Speed Gust Speed Precip Events Conditions
12:31 AM 39.0 °F 31.0 °F 32.0 °F 76% 30.26 in 5.0 mi North 13.8 mph - N/A   Haze
12:53 AM 37.9 °F 29.6 °F 30.9 °F 76% 30.27 in 7.0 mi NNE 13.8 mph - N/A   Overcast
1:14 AM 37.0 °F 28.9 °F 30.0 °F 76% 30.28 in 7.0 mi NNE 12.7 mph - N/A   Scattered Clouds
1:53 AM 36.0 °F 30.3 °F 30.0 °F 79% 30.30 in 7.0 mi NNE 6.9 mph - N/A   Clear
3:53 AM 35.1 °F 27.9 °F 28.9 °F 78% 30.28 in 7.0 mi NNE 9.2 mph - N/A   Clear
4:53 AM 33.1 °F 27.7 °F 28.0 °F 82% 30.30 in 7.0 mi NNE 5.8 mph - N/A   Clear
5:53 AM 32.0 °F 27.5 °F 27.0 °F 82% 30.31 in 8.0 mi NNE 4.6 mph - N/A   Clear
6:53 AM 32.0 °F 28.7 °F 27.0 °F 82% 30.32 in 7.0 mi NNE 3.5 mph - N/A   Clear
7:53 AM 30.9 °F - 26.1 °F 82% 30.34 in 5.0 mi Calm Calm - N/A   Haze
8:53 AM 36.0 °F 33.3 °F 28.9 °F 76% 30.35 in 6.0 mi NNE 3.5 mph - N/A   Haze
9:53 AM 37.9 °F 33.5 °F 27.0 °F 65% 30.34 in 9.0 mi NE 5.8 mph - N/A   Clear
10:53 AM 41.0 °F 38.0 °F 28.0 °F 60% 30.34 in 10.0 mi Variable 4.6 mph - N/A   Clear
11:53 AM 42.1 °F 36.6 °F 28.9 °F 60% 30.32 in 9.0 mi NE 9.2 mph - N/A   Partly Cloudy
12:53 PM 45.0 °F 43.5 °F 30.9 °F 58% 30.30 in 10.0 mi NE 3.5 mph - N/A   Clear
1:53 PM 46.9 °F - 30.9 °F 54% 30.26 in 10.0 mi West 3.5 mph - N/A   Clear
2:53 PM 50.0 °F - 34.0 °F 54% 30.22 in 10.0 mi North - - N/A   Clear
3:53 PM 50.0 °F - 34.0 °F 54% 30.20 in 10.0 mi Variable 3.5 mph - N/A   Clear
4:53 PM 50.0 °F - 33.1 °F 52% 30.16 in 10.0 mi SW 9.2 mph - N/A   Clear
5:53 PM 50.0 °F - 34.0 °F 54% 30.14 in 9.0 mi SSW 5.8 mph - N/A   Clear
6:53 PM 45.0 °F 41.8 °F 35.1 °F 68% 30.16 in 9.0 mi SW 5.8 mph - N/A   Clear
7:53 PM 39.9 °F 35.1 °F 30.9 °F 70% 30.14 in 9.0 mi WSW 6.9 mph - N/A   Clear
8:53 PM 39.0 °F 35.7 °F 32.0 °F 76% 30.14 in 8.0 mi SW 4.6 mph - N/A   Clear
9:53 PM 39.0 °F 34.8 °F 32.0 °F 76% 30.14 in 7.0 mi SW 5.8 mph - N/A   Clear
10:53 PM 39.0 °F 34.8 °F 33.1 °F 79% 30.13 in 7.0 mi SW 5.8 mph - N/A   Clear
11:53 PM 39.0 °F 33.4 °F 33.1 °F 79% 30.11 in 6.0 mi SW 8.1 mph - N/A   Haze
12:53 AM 39.0 °F 33.4 °F 34.0 °F 82% 30.11 in 6.0 mi SW 8.1 mph - N/A   Haze